User: anonymous   Login
Location: Unspecified
(0.0000°N, 0.0000°E)
Time: 11:57:41
(UTC+00:00)
Language:

USA 253 - Orbit

View from above orbital plane
View from above orbital plane
View from above satellite
View from above satellite

Ground track
Ground track

The orbit data is extracted from the following two-line orbital elements,

1 40099U 14043A   24105.50225395 -.00000058  00000-0  00000+0 0  9990
2 40099   3.3888  84.7854 0003236  19.3753 164.2224  0.96768868 19685
Epoch (UTC): 14 April 2024 12:03:14
Eccentricity: 0.0003236
inclination: 3.3888°
perigee height: 36784 km
apogee height: 36811 km
right ascension of ascending node: 84.7854°
argument of perigee: 19.3753°
revolutions per day: 0.96768868
mean anomaly at epoch: 164.2224°
orbit number at epoch: 1968

The dashed part of the orbit path shows where the satellite is in the earth's shadow,  

DLR